DLH1743 LTFM-EDDM

Flight info

Callsign DLH1743
Flight time N/A
Altitude 38000
Route VADEN1D/35L VADEN DCT BAKLO DCT XANEX DCT BESLI DCT UTEKA DCT BABIT DCT GOTAR DCT AMADI Q113 NAPSA NAPSA4A
Aircraft A21N/M-SDE2E3FGIJ1LORWXYZ/HB1

Departure

Time N/A
Airport İstanbul Airport (LTFM)

Arrival

Time 2026-05-04 18:09
Airport Munich Airport (EDDM)
Time Latitude Longitude Altitude Speed Heading
2026-05-04 16:22 42.59292 26.36593 37763 ft 439 kts 300°
2026-05-04 16:22 42.63603 26.25615 38079 ft 439 kts 300°
2026-05-04 16:23 42.67921 26.14635 38056 ft 439 kts 300°
2026-05-04 16:25 42.76502 25.92649 38050 ft 438 kts 300°
2026-05-04 16:26 42.86456 25.66966 38050 ft 438 kts 300°
2026-05-04 16:28 42.93048 25.49823 38049 ft 437 kts 299°
2026-05-04 16:29 43.03341 25.22849 38050 ft 437 kts 299°
2026-05-04 16:31 43.09870 25.05603 38049 ft 437 kts 299°
2026-05-04 16:32 43.17229 24.82752 38049 ft 437 kts 293°
2026-05-04 16:33 43.21742 24.67348 38054 ft 437 kts 293°
2026-05-04 16:34 43.25131 24.55743 38060 ft 437 kts 293°
2026-05-04 16:35 43.31867 24.32524 38060 ft 436 kts 293°
2026-05-04 16:36 43.35210 24.20909 38059 ft 436 kts 293°
2026-05-04 16:37 43.38546 24.09274 38060 ft 436 kts 292°
2026-05-04 16:38 43.43252 23.93929 38061 ft 435 kts 295°
2026-05-04 16:39 43.49323 23.74858 38061 ft 435 kts 295°
2026-05-04 16:40 43.54136 23.59567 38060 ft 434 kts 295°
2026-05-04 16:41 43.60139 23.40479 38060 ft 434 kts 295°
2026-05-04 16:43 43.66095 23.21411 38070 ft 434 kts 295°
2026-05-04 16:43 43.69657 23.09915 38071 ft 434 kts 295°
2026-05-04 16:45 43.76734 22.86869 38070 ft 434 kts 295°
2026-05-04 16:46 43.82609 22.67646 38071 ft 434 kts 295°
2026-05-04 16:47 43.87295 22.52243 38071 ft 434 kts 295°
2026-05-04 16:48 43.92452 22.37205 38066 ft 430 kts 310°
2026-05-04 16:49 44.00225 22.24629 38069 ft 429 kts 313°
2026-05-04 16:50 44.07986 22.12019 38071 ft 429 kts 312°
2026-05-04 16:51 44.13785 22.02554 38071 ft 429 kts 312°
2026-05-04 16:52 44.21514 21.89872 38078 ft 429 kts 312°
2026-05-04 16:53 44.27301 21.80356 38075 ft 429 kts 312°
2026-05-04 16:54 44.34960 21.67682 38079 ft 428 kts 312°
2026-05-04 16:55 44.46456 21.48607 38079 ft 427 kts 311°
2026-05-04 16:56 44.55990 21.32677 38078 ft 426 kts 311°
2026-05-04 16:57 44.61683 21.23112 38079 ft 425 kts 311°
2026-05-04 16:58 44.69254 21.10355 38084 ft 425 kts 311°
2026-05-04 17:00 44.80555 20.91198 38083 ft 424 kts 311°
2026-05-04 17:01 44.89908 20.75246 38078 ft 423 kts 311°
2026-05-04 17:02 44.97387 20.62436 38083 ft 423 kts 311°
2026-05-04 17:03 45.02971 20.52810 38079 ft 422 kts 311°
2026-05-04 17:03 45.08552 20.43172 38079 ft 422 kts 311°
2026-05-04 17:04 45.15980 20.30285 38079 ft 423 kts 311°
2026-05-04 17:05 45.23399 20.17368 38082 ft 422 kts 311°
2026-05-04 17:06 45.28927 20.07697 38079 ft 422 kts 311°
2026-05-04 17:07 45.33869 19.99031 38079 ft 422 kts 311°
2026-05-04 17:07 45.38181 19.91446 38071 ft 421 kts 310°
2026-05-04 17:08 45.43699 19.81713 38070 ft 421 kts 310°
2026-05-04 17:09 45.47345 19.75261 38070 ft 421 kts 310°
2026-05-04 17:09 45.51014 19.68756 38061 ft 421 kts 310°
2026-05-04 17:10 45.60171 19.52452 38058 ft 421 kts 310°
2026-05-04 17:11 45.63829 19.45908 38059 ft 421 kts 310°
2026-05-04 17:12 45.69304 19.36096 38060 ft 421 kts 310°
2026-05-04 17:13 45.78400 19.19697 38060 ft 420 kts 310°
2026-05-04 17:14 45.85658 19.06559 38058 ft 420 kts 310°
2026-05-04 17:15 45.91089 18.96677 38050 ft 420 kts 309°
2026-05-04 17:16 45.97441 18.82579 38051 ft 421 kts 302°
2026-05-04 17:17 46.02902 18.69274 38050 ft 422 kts 302°
2026-05-04 17:18 46.09344 18.53531 38050 ft 422 kts 302°
2026-05-04 17:19 46.14795 18.40148 38051 ft 421 kts 301°
2026-05-04 17:20 46.20684 18.25608 38050 ft 421 kts 301°
2026-05-04 17:20 46.25100 18.14656 38049 ft 421 kts 301°
2026-05-04 17:21 46.30971 18.00026 38041 ft 421 kts 301°
2026-05-04 17:22 46.33900 17.92695 38040 ft 421 kts 301°
2026-05-04 17:23 46.39743 17.78031 38025 ft 420 kts 301°
2026-05-04 17:24 46.44110 17.67010 38017 ft 420 kts 301°
2026-05-04 17:25 46.49916 17.52297 38009 ft 421 kts 301°
2026-05-04 17:26 46.55709 17.37537 38000 ft 420 kts 300°
2026-05-04 17:27 46.62895 17.19105 37992 ft 420 kts 300°
2026-05-04 17:28 46.68632 17.04293 37991 ft 420 kts 300°
2026-05-04 17:29 46.77193 16.82061 37990 ft 420 kts 300°
2026-05-04 17:31 46.84300 16.63465 37991 ft 420 kts 299°
2026-05-04 17:32 46.91375 16.44822 37991 ft 419 kts 299°
2026-05-04 17:33 46.97011 16.29871 37958 ft 419 kts 299°
2026-05-04 17:34 47.01140 16.18630 37338 ft 415 kts 297°
2026-05-04 17:34 47.02441 16.14926 37093 ft 412 kts 297°
2026-05-04 17:35 47.06343 16.03765 36341 ft 409 kts 297°
2026-05-04 17:35 47.08941 15.96327 35835 ft 411 kts 297°
2026-05-04 17:35 47.10244 15.92581 35587 ft 413 kts 297°
2026-05-04 17:36 47.11552 15.88820 35341 ft 414 kts 297°
2026-05-04 17:36 47.12860 15.85057 35096 ft 414 kts 297°
2026-05-04 17:36 47.14162 15.81290 34847 ft 414 kts 297°
2026-05-04 17:36 47.15464 15.77529 34596 ft 413 kts 297°
2026-05-04 17:37 47.16766 15.73758 34344 ft 413 kts 297°
2026-05-04 17:37 47.18056 15.70000 34089 ft 412 kts 297°
2026-05-04 17:37 47.19352 15.66232 33845 ft 412 kts 297°
2026-05-04 17:37 47.20647 15.62485 33594 ft 412 kts 297°
2026-05-04 17:38 47.21942 15.58730 33343 ft 412 kts 297°
2026-05-04 17:38 47.23235 15.54964 33091 ft 412 kts 297°
2026-05-04 17:38 47.24523 15.51201 32848 ft 412 kts 296°
2026-05-04 17:38 47.25808 15.47439 32590 ft 411 kts 296°
2026-05-04 17:39 47.28361 15.39931 32088 ft 409 kts 296°
2026-05-04 17:39 47.29633 15.36194 31834 ft 407 kts 296°
2026-05-04 17:39 47.30903 15.32481 31591 ft 405 kts 296°
2026-05-04 17:40 47.32166 15.28778 31333 ft 403 kts 296°
2026-05-04 17:40 47.33416 15.25099 31085 ft 401 kts 296°
2026-05-04 17:40 47.34660 15.21426 30833 ft 399 kts 296°
2026-05-04 17:40 47.35895 15.17776 30582 ft 397 kts 296°
2026-05-04 17:41 47.37121 15.14142 30333 ft 394 kts 296°
2026-05-04 17:41 47.38335 15.10538 30078 ft 390 kts 296°
2026-05-04 17:41 47.39535 15.06976 29822 ft 385 kts 296°
2026-05-04 17:41 47.40712 15.03461 29566 ft 379 kts 296°
2026-05-04 17:42 47.41870 15.00000 29328 ft 374 kts 296°
2026-05-04 17:42 47.43028 14.96566 29068 ft 373 kts 296°
2026-05-04 17:42 47.44181 14.93139 28812 ft 372 kts 296°
2026-05-04 17:42 47.45328 14.89717 28563 ft 372 kts 296°
2026-05-04 17:43 47.46471 14.86293 28315 ft 371 kts 296°
2026-05-04 17:43 47.47612 14.82875 28066 ft 371 kts 296°
2026-05-04 17:43 47.48754 14.79449 27816 ft 371 kts 295°
2026-05-04 17:43 47.49891 14.76025 27568 ft 371 kts 295°
2026-05-04 17:44 47.51030 14.72596 27318 ft 371 kts 295°
2026-05-04 17:44 47.52169 14.69168 27063 ft 372 kts 295°
2026-05-04 17:44 47.53308 14.65734 26818 ft 372 kts 295°
2026-05-04 17:44 47.54446 14.62300 26569 ft 372 kts 295°
2026-05-04 17:45 47.55586 14.58854 26316 ft 373 kts 295°
2026-05-04 17:45 47.56722 14.55411 26067 ft 372 kts 295°
2026-05-04 17:45 47.57857 14.51965 25786 ft 371 kts 295°
2026-05-04 17:45 47.58985 14.48542 25291 ft 367 kts 295°
2026-05-04 17:46 47.60102 14.45146 24981 ft 368 kts 295°
2026-05-04 17:46 47.61220 14.41738 24712 ft 369 kts 295°
2026-05-04 17:46 47.62344 14.38306 24458 ft 370 kts 295°
2026-05-04 17:46 47.63467 14.34875 24205 ft 371 kts 295°
2026-05-04 17:47 47.64596 14.31425 23945 ft 372 kts 295°
2026-05-04 17:47 47.65722 14.27979 23725 ft 372 kts 295°
2026-05-04 17:47 47.66852 14.24520 23464 ft 373 kts 295°
2026-05-04 17:47 47.67984 14.21054 23216 ft 374 kts 295°
2026-05-04 17:48 47.69115 14.17580 22969 ft 374 kts 295°
2026-05-04 17:48 47.70248 14.14097 22720 ft 375 kts 295°
2026-05-04 17:48 47.71381 14.10601 22463 ft 376 kts 295°
2026-05-04 17:48 47.72511 14.07107 22217 ft 377 kts 294°
2026-05-04 17:49 47.73646 14.03593 21979 ft 377 kts 294°
2026-05-04 17:49 47.74784 14.00076 21723 ft 377 kts 294°
2026-05-04 17:49 47.75916 13.96564 21470 ft 378 kts 294°
2026-05-04 17:49 47.77051 13.93025 21225 ft 379 kts 294°
2026-05-04 17:50 47.78179 13.89489 20974 ft 379 kts 294°
2026-05-04 17:50 47.79312 13.85956 20732 ft 380 kts 294°
2026-05-04 17:50 47.80455 13.82397 20482 ft 381 kts 294°
2026-05-04 17:50 47.81595 13.78838 20238 ft 382 kts 294°
2026-05-04 17:51 47.82737 13.75267 19989 ft 382 kts 294°
2026-05-04 17:51 47.83879 13.71700 19739 ft 381 kts 294°
2026-05-04 17:51 47.85016 13.68137 19498 ft 380 kts 294°
2026-05-04 17:51 47.86146 13.64582 19253 ft 379 kts 294°
2026-05-04 17:52 47.87257 13.61090 19003 ft 378 kts 294°
2026-05-04 17:52 47.88385 13.57562 18756 ft 377 kts 294°
2026-05-04 17:52 47.89505 13.54050 18508 ft 376 kts 294°
2026-05-04 17:52 47.90624 13.50526 18257 ft 375 kts 294°
2026-05-04 17:53 47.91735 13.47014 18000 ft 374 kts 294°
2026-05-04 17:53 47.92854 13.43473 17755 ft 372 kts 294°
2026-05-04 17:53 47.93953 13.39988 17515 ft 371 kts 294°
2026-05-04 17:53 47.95050 13.36511 17268 ft 370 kts 294°
2026-05-04 17:54 47.96126 13.33094 17025 ft 368 kts 293°
2026-05-04 17:54 47.97209 13.29647 16775 ft 367 kts 293°
2026-05-04 17:54 47.98293 13.26192 16526 ft 366 kts 293°
2026-05-04 17:54 47.99503 13.22810 16159 ft 363 kts 301°
2026-05-04 17:55 48.00929 13.19713 15537 ft 361 kts 303°
2026-05-04 17:55 48.02412 13.16695 14908 ft 359 kts 304°
2026-05-04 17:55 48.03877 13.13738 14300 ft 357 kts 304°
2026-05-04 17:55 48.05356 13.10773 13697 ft 354 kts 304°
2026-05-04 17:56 48.06849 13.07801 13166 ft 353 kts 304°
2026-05-04 17:56 48.08313 13.04907 12959 ft 353 kts 304°
2026-05-04 17:56 48.09818 13.01948 12897 ft 353 kts 304°
2026-05-04 17:56 48.11307 12.99025 12896 ft 353 kts 304°
2026-05-04 17:57 48.12798 12.96098 12900 ft 353 kts 304°
2026-05-04 17:57 48.14291 12.93165 12904 ft 354 kts 304°
2026-05-04 17:57 48.15780 12.90236 12910 ft 354 kts 304°
2026-05-04 17:57 48.17253 12.87339 12913 ft 354 kts 304°
2026-05-04 17:58 48.18744 12.84404 12914 ft 354 kts 304°
2026-05-04 17:58 48.20208 12.81526 12906 ft 337 kts 304°
2026-05-04 17:58 48.21527 12.78753 12893 ft 315 kts 296°
2026-05-04 17:58 48.22563 12.75950 12891 ft 305 kts 299°
2026-05-04 17:59 48.23750 12.73337 12592 ft 301 kts 301°
2026-05-04 17:59 48.24815 12.70617 12086 ft 298 kts 294°
2026-05-04 17:59 48.26925 12.65328 11035 ft 301 kts 309°
2026-05-04 18:00 48.28403 12.63103 10406 ft 300 kts 314°
2026-05-04 18:00 48.29908 12.60942 9741 ft 299 kts 314°
2026-05-04 18:00 48.31393 12.58770 9085 ft 296 kts 314°
2026-05-04 18:00 48.32681 12.56396 8408 ft 293 kts 300°
2026-05-04 18:01 48.33608 12.53680 7937 ft 292 kts 295°
2026-05-04 18:01 48.34453 12.50915 7498 ft 290 kts 295°
2026-05-04 18:01 48.35276 12.48152 7071 ft 288 kts 294°
2026-05-04 18:02 48.36531 12.42479 6211 ft 285 kts 285°
2026-05-04 18:02 48.37007 12.39576 5999 ft 285 kts 284°
2026-05-04 18:02 48.37470 12.36691 5967 ft 285 kts 284°
2026-05-04 18:02 48.37932 12.33792 5970 ft 285 kts 284°
2026-05-04 18:03 48.38265 12.30862 5980 ft 285 kts 275°
2026-05-04 18:03 48.38276 12.27891 5986 ft 286 kts 265°
2026-05-04 18:03 48.37921 12.24932 5995 ft 287 kts 259°
2026-05-04 18:03 48.37676 12.21954 5999 ft 287 kts 263°
2026-05-04 18:04 48.37441 12.18985 6005 ft 287 kts 264°
2026-05-04 18:04 48.37216 12.16072 5935 ft 274 kts 264°
2026-05-04 18:04 48.36862 12.11470 5478 ft 261 kts 264°
2026-05-04 18:05 48.36657 12.08783 5149 ft 256 kts 264°
2026-05-04 18:05 48.36455 12.06161 4821 ft 250 kts 264°
2026-05-04 18:05 48.36257 12.03579 4488 ft 245 kts 263°
2026-05-04 18:05 48.36065 12.01073 4168 ft 236 kts 263°
2026-05-04 18:06 48.35714 11.96485 3563 ft 206 kts 263°
2026-05-04 18:06 48.35556 11.94427 3353 ft 195 kts 263°
2026-05-04 18:06 48.35404 11.92442 3116 ft 184 kts 263°
2026-05-04 18:07 48.35263 11.90583 2874 ft 174 kts 263°
2026-05-04 18:07 48.35135 11.88856 2710 ft 154 kts 263°
2026-05-04 18:07 48.35011 11.87357 2461 ft 140 kts 262°
2026-05-04 18:07 48.34900 11.85920 2247 ft 138 kts 263°
2026-05-04 18:08 48.34796 11.84491 2033 ft 137 kts 265°
2026-05-04 18:08 48.34679 11.83069 1878 ft 138 kts 264°
2026-05-04 18:08 48.34566 11.81640 1691 ft 137 kts 264°
2026-05-04 18:08 48.34464 11.80219 1516 ft 137 kts 264°
2026-05-04 18:09 48.34310 11.78230 1491 ft 27 kts 265°
2026-05-04 18:09 48.34371 11.77799 1491 ft 15 kts 292°
2026-05-04 18:10 48.34416 11.77642 1491 ft 16 kts 294°
2026-05-04 18:10 48.34453 11.77511 1484 ft 14 kts 294°
2026-05-04 18:10 48.34508 11.77441 1486 ft 11 kts 350°
2026-05-04 18:10 48.34553 11.77432 1477 ft 0 kts 353°
2026-05-04 18:11 48.34608 11.77434 1489 ft 13 kts 23°
2026-05-04 18:11 48.34638 11.77562 1491 ft 15 kts 85°
2026-05-04 18:11 48.34649 11.77729 1479 ft 17 kts 83°
2026-05-04 18:12 48.34663 11.77916 1482 ft 19 kts 83°
2026-05-04 18:12 48.34680 11.78121 1491 ft 21 kts 83°
2026-05-04 18:12 48.34700 11.78351 1481 ft 23 kts 83°
2026-05-04 18:12 48.34719 11.78593 1488 ft 25 kts 84°
2026-05-04 18:13 48.34737 11.78857 1480 ft 26 kts 84°
2026-05-04 18:13 48.34758 11.79139 1491 ft 28 kts 83°
2026-05-04 18:13 48.34820 11.79561 1488 ft 12 kts 12°
2026-05-04 18:14 48.34888 11.79552 1482 ft 4 kts 353°
2026-05-04 18:14 48.34889 11.79552 1491 ft 0 kts 353°
2026-05-04 18:21 48.34890 11.79552 1491 ft 1 kts 353°
2026-05-04 18:21 48.34911 11.79548 1477 ft 5 kts 354°
2026-05-04 18:22 48.34955 11.79546 1489 ft 8 kts 13°
2026-05-04 18:22 48.35015 11.79588 1477 ft 11 kts
2026-05-04 18:22 48.35099 11.79585 1483 ft 13 kts 354°
2026-05-04 18:22 48.35191 11.79570 1485 ft 14 kts 353°
2026-05-04 18:23 48.35290 11.79553 1481 ft 15 kts 354°
2026-05-04 18:23 48.35398 11.79534 1485 ft 16 kts 351°
2026-05-04 18:23 48.35498 11.79513 1488 ft 10 kts 353°
2026-05-04 18:23 48.35563 11.79475 1484 ft 11 kts 294°
2026-05-04 18:24 48.35565 11.79358 1487 ft 9 kts 264°
2026-05-04 18:24 48.35560 11.79292 1484 ft 0 kts 263°
2026-05-04 18:27 48.35547 11.79307 1491 ft 0 kts 263°